CARCARA 1 (ICEYE-X18) (52749 NORAD) Tracking and Keplerian Element Data

This shows tracking and keplerian element data for the satellite.

Feedback or suggestion? Click here.




ElementValue
Catalog52749
NameCARCARA 1 (ICEYE-X18)
Epoch Orbit15007
Epoch Day35.14925219
Epoch Year2025
RAAN172.2858
Inclination97.5662
Eccentricity0.0007342
Argument of Perigee321.9533
Mean Anonmoly38.121
Mean Motion15.71342033
Decay Rate0.00254233
L11 52749U 22057T 25035.14925219 .00254233 00000+0 19463-2 0 9994
L22 52749 97.5662 172.2858 0007342 321.9533 38.1210 15.71342033150076



Live tracking and technical data element details for CARCARA 1 (ICEYE-X18) (NORAD 52749). CARCARA 1 (ICEYE-X18) can be tracked NOW for your location showing map with azimuth and elevation plus other details from your city location.







IsCatalogInMostPopularTable: catalog: 52749, numindb: 85
Update: records affected: 1



GetName: 52749 CARCARA 1 (ICEYE-X18)

Hit Count: updated at: Wed, 18 Jun 2025 06:29:19 GMT